Year,Month,Day,Hour,Minute,Value (Times are PST for temperature in C)
2015,01,28,00,00,3.70
2015,01,28,00,01,3.70
2015,01,28,00,02,3.70
2015,01,28,00,03,3.80
2015,01,28,00,04,3.80
2015,01,28,00,05,3.80
2015,01,28,00,06,3.80
2015,01,28,00,07,3.80
2015,01,28,00,08,3.80
2015,01,28,00,09,3.90
2015,01,28,00,10,3.90
2015,01,28,00,11,3.90
2015,01,28,00,12,3.90
2015,01,28,00,13,3.90
2015,01,28,00,14,3.90
2015,01,28,00,15,3.90
2015,01,28,00,16,3.90
2015,01,28,00,17,3.90
2015,01,28,00,18,3.90
2015,01,28,00,19,3.90
2015,01,28,00,20,4.00
2015,01,28,00,21,4.00
2015,01,28,00,22,4.00
2015,01,28,00,23,4.00
2015,01,28,00,24,4.00
2015,01,28,00,25,4.00
2015,01,28,00,26,4.00
2015,01,28,00,27,4.10
2015,01,28,00,28,4.10
2015,01,28,00,29,4.10
2015,01,28,00,30,4.10
2015,01,28,00,31,4.10
2015,01,28,00,32,4.10
2015,01,28,00,33,4.10
2015,01,28,00,34,4.10
2015,01,28,00,35,4.10
2015,01,28,00,36,4.10
2015,01,28,00,37,4.10
2015,01,28,00,38,4.10
2015,01,28,00,39,4.10
2015,01,28,00,40,4.10
2015,01,28,00,41,4.10
2015,01,28,00,42,4.10
2015,01,28,00,43,4.10
2015,01,28,00,44,4.10
2015,01,28,00,45,4.10
2015,01,28,00,46,4.10
2015,01,28,00,47,4.10
2015,01,28,00,48,4.10
2015,01,28,00,49,4.10
2015,01,28,00,50,4.10
2015,01,28,00,51,4.00
2015,01,28,00,52,4.00
2015,01,28,00,53,4.00
2015,01,28,00,54,4.00
2015,01,28,00,55,4.00
2015,01,28,00,56,3.90
2015,01,28,00,57,3.90
2015,01,28,00,58,3.90
2015,01,28,00,59,3.90
2015,01,28,01,00,3.90
2015,01,28,01,01,3.80
2015,01,28,01,02,3.80
2015,01,28,01,03,3.80
2015,01,28,01,04,3.80
2015,01,28,01,05,3.80
2015,01,28,01,06,3.70
2015,01,28,01,07,3.70
2015,01,28,01,08,3.70
2015,01,28,01,09,3.70
2015,01,28,01,10,3.60
2015,01,28,01,11,3.60
2015,01,28,01,12,3.60
2015,01,28,01,13,3.60
2015,01,28,01,14,3.50
2015,01,28,01,15,3.50
2015,01,28,01,16,3.50
2015,01,28,01,17,3.40
2015,01,28,01,18,3.40
2015,01,28,01,19,3.40
2015,01,28,01,20,3.40
2015,01,28,01,21,3.30
2015,01,28,01,22,3.30
2015,01,28,01,23,3.30
2015,01,28,01,24,3.30
2015,01,28,01,25,3.30
2015,01,28,01,26,3.20
2015,01,28,01,27,3.20
2015,01,28,01,28,3.20
2015,01,28,01,29,3.20
2015,01,28,01,30,3.20
2015,01,28,01,31,3.10
2015,01,28,01,32,3.10
2015,01,28,01,33,3.10
2015,01,28,01,34,3.10
2015,01,28,01,35,3.00
2015,01,28,01,36,3.00
2015,01,28,01,37,3.00
2015,01,28,01,38,2.90
2015,01,28,01,39,2.90
2015,01,28,01,40,2.90
2015,01,28,01,41,2.80
2015,01,28,01,42,2.80
2015,01,28,01,43,2.80
2015,01,28,01,44,2.80
2015,01,28,01,45,2.70
2015,01,28,01,46,2.70
2015,01,28,01,47,2.70
2015,01,28,01,48,2.70
2015,01,28,01,49,2.70
2015,01,28,01,50,2.60
2015,01,28,01,51,2.60
2015,01,28,01,52,2.60
2015,01,28,01,53,2.60
2015,01,28,01,54,2.60
2015,01,28,01,55,2.60
2015,01,28,01,56,2.60
2015,01,28,01,57,2.60
2015,01,28,01,58,2.60
2015,01,28,01,59,2.60
2015,01,28,02,00,2.60
2015,01,28,02,01,2.60
2015,01,28,02,02,2.60
2015,01,28,02,03,2.50
2015,01,28,02,04,2.50
2015,01,28,02,05,2.50
2015,01,28,02,06,2.50
2015,01,28,02,07,2.50
2015,01,28,02,08,2.50
2015,01,28,02,09,2.50
2015,01,28,02,10,2.50
2015,01,28,02,11,2.40
2015,01,28,02,12,2.40
2015,01,28,02,13,2.40
2015,01,28,02,14,2.40
2015,01,28,02,15,2.40
2015,01,28,02,16,2.40
2015,01,28,02,17,2.40
2015,01,28,02,18,2.30
2015,01,28,02,19,2.30
2015,01,28,02,20,2.30
2015,01,28,02,21,2.30
2015,01,28,02,22,2.30
2015,01,28,02,23,2.30
2015,01,28,02,24,2.30
2015,01,28,02,25,2.30
2015,01,28,02,26,2.40
2015,01,28,02,27,2.40
2015,01,28,02,28,2.40
2015,01,28,02,29,2.40
2015,01,28,02,30,2.40
2015,01,28,02,31,2.40
2015,01,28,02,32,2.40
2015,01,28,02,33,2.40
2015,01,28,02,34,2.40
2015,01,28,02,35,2.40
2015,01,28,02,36,2.30
2015,01,28,02,37,2.30
2015,01,28,02,38,2.30
2015,01,28,02,39,2.30
2015,01,28,02,40,2.30
2015,01,28,02,41,2.30
2015,01,28,02,42,2.30
2015,01,28,02,43,2.30
2015,01,28,02,44,2.30
2015,01,28,02,45,2.30
2015,01,28,02,46,2.30
2015,01,28,02,47,2.30
2015,01,28,02,48,2.30
2015,01,28,02,49,2.30
2015,01,28,02,50,2.30
2015,01,28,02,51,2.30
2015,01,28,02,52,2.30
2015,01,28,02,53,2.30
2015,01,28,02,54,2.30
2015,01,28,02,55,2.30
2015,01,28,02,56,2.30
2015,01,28,02,57,2.30
2015,01,28,02,58,2.30
2015,01,28,02,59,2.20
2015,01,28,03,00,2.20
2015,01,28,03,01,2.20
2015,01,28,03,02,2.20
2015,01,28,03,03,2.20
2015,01,28,03,04,2.20
2015,01,28,03,05,2.20
2015,01,28,03,06,2.10
2015,01,28,03,07,2.10
2015,01,28,03,08,2.10
2015,01,28,03,09,2.10
2015,01,28,03,10,2.10
2015,01,28,03,11,2.00
2015,01,28,03,12,2.00
2015,01,28,03,13,2.00
2015,01,28,03,14,1.90
2015,01,28,03,15,1.90
2015,01,28,03,16,1.90
2015,01,28,03,17,1.90
2015,01,28,03,18,1.90
2015,01,28,03,19,1.90
2015,01,28,03,20,1.90
2015,01,28,03,21,1.80
2015,01,28,03,22,1.80
2015,01,28,03,23,1.80
2015,01,28,03,24,1.80
2015,01,28,03,25,1.80
2015,01,28,03,26,1.80
2015,01,28,03,27,1.80
2015,01,28,03,28,1.80
2015,01,28,03,29,1.80
2015,01,28,03,30,1.80
2015,01,28,03,31,1.90
2015,01,28,03,32,1.90
2015,01,28,03,33,1.90
2015,01,28,03,34,1.90
2015,01,28,03,35,1.90
2015,01,28,03,36,1.90
2015,01,28,03,37,1.90
2015,01,28,03,38,1.90
2015,01,28,03,39,1.90
2015,01,28,03,40,1.90
2015,01,28,03,41,1.90
2015,01,28,03,42,1.90
2015,01,28,03,43,1.90
2015,01,28,03,44,2.00
2015,01,28,03,45,2.00
2015,01,28,03,46,2.00
2015,01,28,03,47,2.00
2015,01,28,03,48,2.10
2015,01,28,03,49,2.10
2015,01,28,03,50,2.10
2015,01,28,03,51,2.10
2015,01,28,03,52,2.10
2015,01,28,03,53,2.10
2015,01,28,03,54,2.20
2015,01,28,03,55,2.20
2015,01,28,03,56,2.20
2015,01,28,03,57,2.20
2015,01,28,03,58,2.20
2015,01,28,03,59,2.20
2015,01,28,04,00,2.20
2015,01,28,04,01,2.20
2015,01,28,04,02,2.20
2015,01,28,04,03,2.20
2015,01,28,04,04,2.20
2015,01,28,04,05,2.30
2015,01,28,04,06,2.30
2015,01,28,04,07,2.30
2015,01,28,04,08,2.30
2015,01,28,04,09,2.30
2015,01,28,04,10,2.30
2015,01,28,04,11,2.30
2015,01,28,04,12,2.30
2015,01,28,04,13,2.30
2015,01,28,04,14,2.30
2015,01,28,04,15,2.30
2015,01,28,04,16,2.30
2015,01,28,04,17,2.30
2015,01,28,04,18,2.30
2015,01,28,04,19,2.30
2015,01,28,04,20,2.30
2015,01,28,04,21,2.30
2015,01,28,04,22,2.30
2015,01,28,04,23,2.30
2015,01,28,04,24,2.30
2015,01,28,04,25,2.30
2015,01,28,04,26,2.30
2015,01,28,04,27,2.30
2015,01,28,04,28,2.30
2015,01,28,04,29,2.30
2015,01,28,04,30,2.30
2015,01,28,04,31,2.30
2015,01,28,04,32,2.30
2015,01,28,04,33,2.30
2015,01,28,04,34,2.30
2015,01,28,04,35,2.30
2015,01,28,04,36,2.30
2015,01,28,04,37,2.30
2015,01,28,04,38,2.30
2015,01,28,04,39,2.40
2015,01,28,04,40,2.40
2015,01,28,04,41,2.40
2015,01,28,04,42,2.40
2015,01,28,04,43,2.40
2015,01,28,04,44,2.40
2015,01,28,04,45,2.40
2015,01,28,04,46,2.40
2015,01,28,04,47,2.40
2015,01,28,04,48,2.40
2015,01,28,04,49,2.40
2015,01,28,04,50,2.30
2015,01,28,04,51,2.30
2015,01,28,04,52,2.30
2015,01,28,04,53,2.30
2015,01,28,04,54,2.30
2015,01,28,04,55,2.30
2015,01,28,04,56,2.30
2015,01,28,04,57,2.30
2015,01,28,04,58,2.30
2015,01,28,04,59,2.30
2015,01,28,05,00,2.30
2015,01,28,05,01,2.20
2015,01,28,05,02,2.20
2015,01,28,05,03,2.20
2015,01,28,05,04,2.20
2015,01,28,05,05,2.20
2015,01,28,05,06,2.20
2015,01,28,05,07,2.20
2015,01,28,05,08,2.20
2015,01,28,05,09,2.20
2015,01,28,05,10,2.10
2015,01,28,05,11,2.10
2015,01,28,05,12,2.10
2015,01,28,05,13,2.10
2015,01,28,05,14,2.10
2015,01,28,05,15,2.10
2015,01,28,05,16,2.10
2015,01,28,05,17,2.10
2015,01,28,05,18,2.10
2015,01,28,05,19,2.10
2015,01,28,05,20,2.00
2015,01,28,05,21,2.00
2015,01,28,05,22,2.00
2015,01,28,05,23,2.00
2015,01,28,05,24,2.00
2015,01,28,05,25,2.00
2015,01,28,05,26,1.90
2015,01,28,05,27,1.90
2015,01,28,05,28,1.90
2015,01,28,05,29,1.90
2015,01,28,05,30,1.90
2015,01,28,05,31,1.90
2015,01,28,05,32,1.80
2015,01,28,05,33,1.80
2015,01,28,05,34,1.80
2015,01,28,05,35,1.80
2015,01,28,05,36,1.80
2015,01,28,05,37,1.80
2015,01,28,05,38,1.80
2015,01,28,05,39,1.70
2015,01,28,05,40,1.70
2015,01,28,05,41,1.70
2015,01,28,05,42,1.70
2015,01,28,05,43,1.70
2015,01,28,05,44,1.60
2015,01,28,05,45,1.60
2015,01,28,05,46,1.60
2015,01,28,05,47,1.60
2015,01,28,05,48,1.60
2015,01,28,05,49,1.60
2015,01,28,05,50,1.50
2015,01,28,05,51,1.50
2015,01,28,05,52,1.50
2015,01,28,05,53,1.50
2015,01,28,05,54,1.40
2015,01,28,05,55,1.40
2015,01,28,05,56,1.40
2015,01,28,05,57,1.40
2015,01,28,05,58,1.40
2015,01,28,05,59,1.40
2015,01,28,06,00,1.30
2015,01,28,06,01,1.30
2015,01,28,06,02,1.30
2015,01,28,06,03,1.30
2015,01,28,06,04,1.30
2015,01,28,06,05,1.30
2015,01,28,06,06,1.30
2015,01,28,06,07,1.30
2015,01,28,06,08,1.30
2015,01,28,06,09,1.30
2015,01,28,06,10,1.30
2015,01,28,06,11,1.30
2015,01,28,06,12,1.30
2015,01,28,06,13,1.30
2015,01,28,06,14,1.30
2015,01,28,06,15,1.30
2015,01,28,06,16,1.30
2015,01,28,06,17,1.30
2015,01,28,06,18,1.30
2015,01,28,06,19,1.40
2015,01,28,06,20,1.40
2015,01,28,06,21,1.40
2015,01,28,06,22,1.40
2015,01,28,06,23,1.40
2015,01,28,06,24,1.40
2015,01,28,06,25,1.40
2015,01,28,06,26,1.40
2015,01,28,06,27,1.40
2015,01,28,06,28,1.40
2015,01,28,06,29,1.40
2015,01,28,06,30,1.40
2015,01,28,06,31,1.50
2015,01,28,06,32,1.50
2015,01,28,06,33,1.50
2015,01,28,06,34,1.50
2015,01,28,06,35,1.50
2015,01,28,06,36,1.50
2015,01,28,06,37,1.50
2015,01,28,06,38,1.60
2015,01,28,06,39,1.60
2015,01,28,06,40,1.60
2015,01,28,06,41,1.60
2015,01,28,06,42,1.60
2015,01,28,06,43,1.60
2015,01,28,06,44,1.60
2015,01,28,06,45,1.60
2015,01,28,06,46,1.60
2015,01,28,06,47,1.60
2015,01,28,06,48,1.70
2015,01,28,06,49,1.70
2015,01,28,06,50,1.70
2015,01,28,06,51,1.70
2015,01,28,06,52,1.70
2015,01,28,06,53,1.70
2015,01,28,06,54,1.70
2015,01,28,06,55,1.70
2015,01,28,06,56,1.70
2015,01,28,06,57,1.80
2015,01,28,06,58,1.80
2015,01,28,06,59,1.80
2015,01,28,07,00,1.80
2015,01,28,07,01,1.80
2015,01,28,07,02,1.80
2015,01,28,07,03,1.80
2015,01,28,07,04,1.80
2015,01,28,07,05,1.90
2015,01,28,07,06,1.90
2015,01,28,07,07,1.90
2015,01,28,07,08,1.90
2015,01,28,07,09,1.90
2015,01,28,07,10,1.90
2015,01,28,07,11,2.00
2015,01,28,07,12,2.00
2015,01,28,07,13,2.00
2015,01,28,07,14,2.00
2015,01,28,07,15,2.10
2015,01,28,07,16,2.10
2015,01,28,07,17,2.10
2015,01,28,07,18,2.10
2015,01,28,07,19,2.10
2015,01,28,07,20,2.10
2015,01,28,07,21,2.10
2015,01,28,07,22,2.20
2015,01,28,07,23,2.20
2015,01,28,07,24,2.20
2015,01,28,07,25,2.20
2015,01,28,07,26,2.20
2015,01,28,07,27,2.20
2015,01,28,07,28,2.30
2015,01,28,07,29,2.30
2015,01,28,07,30,2.30
2015,01,28,07,31,2.30
2015,01,28,07,32,2.30
2015,01,28,07,33,2.30
2015,01,28,07,34,2.40
2015,01,28,07,35,2.40
2015,01,28,07,36,2.40
2015,01,28,07,37,2.40
2015,01,28,07,38,2.40
2015,01,28,07,39,2.40
2015,01,28,07,40,2.40
2015,01,28,07,41,2.40
2015,01,28,07,42,2.50
2015,01,28,07,43,2.50
2015,01,28,07,44,2.50
2015,01,28,07,45,2.50
2015,01,28,07,46,2.60
2015,01,28,07,47,2.60
2015,01,28,07,48,2.60
2015,01,28,07,49,2.60
2015,01,28,07,50,2.60
2015,01,28,07,51,2.60
2015,01,28,07,52,2.70
2015,01,28,07,53,2.70
2015,01,28,07,54,2.70
2015,01,28,07,55,2.70
2015,01,28,07,56,2.70
2015,01,28,07,57,2.80
2015,01,28,07,58,2.80
2015,01,28,07,59,2.80
2015,01,28,08,00,2.80
2015,01,28,08,01,2.80
2015,01,28,08,02,2.80
2015,01,28,08,03,2.80
2015,01,28,08,04,2.90
2015,01,28,08,05,2.90
2015,01,28,08,06,2.90
2015,01,28,08,07,2.90
2015,01,28,08,08,2.90
2015,01,28,08,09,2.90
2015,01,28,08,10,2.90
2015,01,28,08,11,2.90
2015,01,28,08,12,2.90
2015,01,28,08,13,2.90
2015,01,28,08,14,2.90
2015,01,28,08,15,3.00
2015,01,28,08,16,3.00
2015,01,28,08,17,3.00
2015,01,28,08,18,3.10
2015,01,28,08,19,3.10
2015,01,28,08,20,3.10
2015,01,28,08,21,3.10
2015,01,28,08,22,3.10
2015,01,28,08,23,3.20
2015,01,28,08,24,3.20
2015,01,28,08,25,3.20
2015,01,28,08,26,3.20
2015,01,28,08,27,3.20
2015,01,28,08,28,3.20
2015,01,28,08,29,3.20
2015,01,28,08,30,3.30
2015,01,28,08,31,3.30
2015,01,28,08,32,3.30
2015,01,28,08,33,3.30
2015,01,28,08,34,3.40
2015,01,28,08,35,3.40
2015,01,28,08,36,3.40
2015,01,28,08,37,3.40
2015,01,28,08,38,3.40
2015,01,28,08,39,3.40
2015,01,28,08,40,3.50
2015,01,28,08,41,3.50
2015,01,28,08,42,3.50
2015,01,28,08,43,3.60
2015,01,28,08,44,3.60
2015,01,28,08,45,3.60
2015,01,28,08,46,3.70
2015,01,28,08,47,3.70
2015,01,28,08,48,3.70
2015,01,28,08,49,3.70
2015,01,28,08,50,3.70
2015,01,28,08,51,3.70
2015,01,28,08,52,3.80
2015,01,28,08,53,3.80
2015,01,28,08,54,3.80
2015,01,28,08,55,3.80
2015,01,28,08,56,3.80
2015,01,28,08,57,3.80
2015,01,28,08,58,3.90
2015,01,28,08,59,3.90
2015,01,28,09,00,4.00
2015,01,28,09,01,4.00
2015,01,28,09,02,4.10
2015,01,28,09,03,4.10
2015,01,28,09,04,4.10
2015,01,28,09,05,4.10
2015,01,28,09,06,4.10
2015,01,28,09,07,4.20
2015,01,28,09,08,4.20
2015,01,28,09,09,4.20
2015,01,28,09,10,4.30
2015,01,28,09,11,4.30
2015,01,28,09,12,4.30
2015,01,28,09,13,4.40
2015,01,28,09,14,4.40
2015,01,28,09,15,4.50
2015,01,28,09,16,4.50
2015,01,28,09,17,4.60
2015,01,28,09,18,4.60
2015,01,28,09,19,4.60
2015,01,28,09,20,4.70
2015,01,28,09,21,4.70
2015,01,28,09,22,4.70
2015,01,28,09,23,4.70
2015,01,28,09,24,4.80
2015,01,28,09,25,4.80
2015,01,28,09,26,4.80
2015,01,28,09,27,4.80
2015,01,28,09,28,4.90
2015,01,28,09,29,4.90
2015,01,28,09,30,4.90
2015,01,28,09,31,4.90
2015,01,28,09,32,4.90
2015,01,28,09,33,5.00
2015,01,28,09,34,5.00
2015,01,28,09,35,5.00
2015,01,28,09,36,5.10
2015,01,28,09,37,5.10
2015,01,28,09,38,5.10
2015,01,28,09,39,5.10
2015,01,28,09,40,5.10
2015,01,28,09,41,5.20
2015,01,28,09,42,5.20
2015,01,28,09,43,5.20
2015,01,28,09,44,5.20
2015,01,28,09,45,5.20
2015,01,28,09,46,5.20
2015,01,28,09,47,5.30
2015,01,28,09,48,5.30
2015,01,28,09,49,5.30
2015,01,28,09,50,5.30
2015,01,28,09,51,5.30
2015,01,28,09,52,5.30
2015,01,28,09,53,5.30
2015,01,28,09,54,5.30
2015,01,28,09,55,5.30
2015,01,28,09,56,5.40
2015,01,28,09,57,5.40
2015,01,28,09,58,5.40
2015,01,28,09,59,5.40
2015,01,28,10,00,5.40
2015,01,28,10,01,5.40
2015,01,28,10,02,5.40
2015,01,28,10,03,5.40
2015,01,28,10,04,5.40
2015,01,28,10,05,5.40
2015,01,28,10,06,5.40
2015,01,28,10,07,5.40
2015,01,28,10,08,5.40
2015,01,28,10,09,5.40
2015,01,28,10,10,5.40
2015,01,28,10,11,5.40
2015,01,28,10,12,5.40
2015,01,28,10,13,5.40
2015,01,28,10,14,5.40
2015,01,28,10,15,5.50
2015,01,28,10,16,5.50
2015,01,28,10,17,5.50
2015,01,28,10,18,5.50
2015,01,28,10,19,5.50
2015,01,28,10,20,5.50
2015,01,28,10,21,5.50
2015,01,28,10,22,5.50
2015,01,28,10,23,5.60
2015,01,28,10,24,5.60
2015,01,28,10,25,5.60
2015,01,28,10,26,5.60
2015,01,28,10,27,5.60
2015,01,28,10,28,5.60
2015,01,28,10,29,5.60
2015,01,28,10,30,5.60
2015,01,28,10,31,5.70
2015,01,28,10,32,5.70
2015,01,28,10,33,5.70
2015,01,28,10,34,5.70
2015,01,28,10,35,5.70
2015,01,28,10,36,5.70
2015,01,28,10,37,5.70
2015,01,28,10,38,5.80
2015,01,28,10,39,5.80
2015,01,28,10,40,5.80
2015,01,28,10,41,5.80
2015,01,28,10,42,5.80
2015,01,28,10,43,5.80
2015,01,28,10,44,5.80
2015,01,28,10,45,5.90
2015,01,28,10,46,5.90
2015,01,28,10,47,5.90
2015,01,28,10,48,5.90
2015,01,28,10,49,6.00
2015,01,28,10,50,6.00
2015,01,28,10,51,6.00
2015,01,28,10,52,6.10
2015,01,28,10,53,6.10
2015,01,28,10,54,6.10
2015,01,28,10,55,6.20
2015,01,28,10,56,6.20
2015,01,28,10,57,6.20
2015,01,28,10,58,6.20
2015,01,28,10,59,6.20
2015,01,28,11,00,6.20
2015,01,28,11,01,6.20
2015,01,28,11,02,6.20
2015,01,28,11,03,6.30
2015,01,28,11,04,6.30
2015,01,28,11,05,6.30
2015,01,28,11,06,6.30
2015,01,28,11,07,6.30
2015,01,28,11,08,6.30
2015,01,28,11,09,6.40
2015,01,28,11,10,6.40
2015,01,28,11,11,6.40
2015,01,28,11,12,6.40
2015,01,28,11,13,6.40
2015,01,28,11,14,6.50
2015,01,28,11,15,6.50
2015,01,28,11,16,6.60
2015,01,28,11,17,6.60
2015,01,28,11,18,6.60
2015,01,28,11,19,6.70
2015,01,28,11,20,6.70
2015,01,28,11,21,6.70
2015,01,28,11,22,6.70
2015,01,28,11,23,6.80
2015,01,28,11,24,6.80
2015,01,28,11,25,6.80
2015,01,28,11,26,6.80
2015,01,28,11,27,6.80
2015,01,28,11,28,6.80
2015,01,28,11,29,6.80
2015,01,28,11,30,6.90
2015,01,28,11,31,6.90
2015,01,28,11,32,6.90
2015,01,28,11,33,6.90
2015,01,28,11,34,6.90
2015,01,28,11,35,6.90
2015,01,28,11,36,6.90
2015,01,28,11,37,6.90
2015,01,28,11,38,6.90
2015,01,28,11,39,6.90
2015,01,28,11,40,7.00
2015,01,28,11,41,7.00
2015,01,28,11,42,7.00
2015,01,28,11,43,7.00
2015,01,28,11,44,7.10
2015,01,28,11,45,7.10
2015,01,28,11,46,7.10
2015,01,28,11,47,7.10
2015,01,28,11,48,7.10
2015,01,28,11,49,7.10
2015,01,28,11,50,7.20
2015,01,28,11,51,7.20
2015,01,28,11,52,7.20
2015,01,28,11,53,7.20
2015,01,28,11,54,7.20
2015,01,28,11,55,7.20
2015,01,28,11,56,7.20
2015,01,28,11,57,7.20
2015,01,28,11,58,7.20
2015,01,28,11,59,7.20
2015,01,28,12,00,7.20
2015,01,28,12,01,7.20
2015,01,28,12,02,7.20
2015,01,28,12,03,7.20
2015,01,28,12,04,7.20
2015,01,28,12,05,7.30
2015,01,28,12,06,7.30
2015,01,28,12,07,7.30
2015,01,28,12,08,7.30
2015,01,28,12,09,7.30
2015,01,28,12,10,7.40
2015,01,28,12,11,7.40
2015,01,28,12,12,7.40
2015,01,28,12,13,7.40
2015,01,28,12,14,7.40
2015,01,28,12,15,7.40
2015,01,28,12,16,7.40
2015,01,28,12,17,7.50
2015,01,28,12,18,7.50
2015,01,28,12,19,7.50
2015,01,28,12,20,7.50
2015,01,28,12,21,7.50
2015,01,28,12,22,7.50
2015,01,28,12,23,7.50
2015,01,28,12,24,7.50
2015,01,28,12,25,7.60
2015,01,28,12,26,7.60
2015,01,28,12,27,7.60
2015,01,28,12,28,7.60
2015,01,28,12,29,7.60
2015,01,28,12,30,7.60
2015,01,28,12,31,7.60
2015,01,28,12,32,7.60
2015,01,28,12,33,7.60
2015,01,28,12,34,7.60
2015,01,28,12,35,7.60
2015,01,28,12,36,7.60
2015,01,28,12,37,7.60
2015,01,28,12,38,7.60
2015,01,28,12,39,7.60
2015,01,28,12,40,7.60
2015,01,28,12,41,7.70
2015,01,28,12,42,7.70
2015,01,28,12,43,7.70
2015,01,28,12,44,7.70
2015,01,28,12,45,7.70
2015,01,28,12,46,7.70
2015,01,28,12,47,7.70
2015,01,28,12,48,7.80
2015,01,28,12,49,7.80
2015,01,28,12,50,7.80
2015,01,28,12,51,7.80
2015,01,28,12,52,7.80
2015,01,28,12,53,7.80
2015,01,28,12,54,7.80
2015,01,28,12,55,7.80
2015,01,28,12,56,7.80
2015,01,28,12,57,7.80
2015,01,28,12,58,7.90
2015,01,28,12,59,7.90
2015,01,28,13,00,7.90
2015,01,28,13,01,7.90
2015,01,28,13,02,7.90
2015,01,28,13,03,7.90
2015,01,28,13,04,7.90
2015,01,28,13,05,7.90
2015,01,28,13,06,7.90
2015,01,28,13,07,7.90
2015,01,28,13,08,7.90
2015,01,28,13,09,7.90
2015,01,28,13,10,7.90
2015,01,28,13,11,7.90
2015,01,28,13,12,7.90
2015,01,28,13,13,7.90
2015,01,28,13,14,7.90
2015,01,28,13,15,7.90
2015,01,28,13,16,7.90
2015,01,28,13,17,7.90
2015,01,28,13,18,7.90
2015,01,28,13,19,7.90
2015,01,28,13,20,7.90
2015,01,28,13,21,7.90
2015,01,28,13,22,7.90
2015,01,28,13,23,7.90
2015,01,28,13,24,7.80
2015,01,28,13,25,7.90
2015,01,28,13,26,7.90
2015,01,28,13,27,7.90
2015,01,28,13,28,8.00
2015,01,28,13,29,8.00
2015,01,28,13,30,8.00
2015,01,28,13,31,8.00
2015,01,28,13,32,8.00
2015,01,28,13,33,7.90
2015,01,28,13,34,7.90
2015,01,28,13,35,7.90
2015,01,28,13,36,7.90
2015,01,28,13,37,7.90
2015,01,28,13,38,7.90
2015,01,28,13,39,7.90
2015,01,28,13,40,7.90
2015,01,28,13,41,7.90
2015,01,28,13,42,7.90
2015,01,28,13,43,7.90
2015,01,28,13,44,7.90
2015,01,28,13,45,7.90
2015,01,28,13,46,7.90
2015,01,28,13,47,7.90
2015,01,28,13,48,7.90
2015,01,28,13,49,7.90
2015,01,28,13,50,7.90
2015,01,28,13,51,7.80
2015,01,28,13,52,7.80
2015,01,28,13,53,7.80
2015,01,28,13,54,7.80
2015,01,28,13,55,7.80
2015,01,28,13,56,7.80
2015,01,28,13,57,7.70
2015,01,28,13,58,7.70
2015,01,28,13,59,7.70
2015,01,28,14,00,7.70
2015,01,28,14,01,7.60
2015,01,28,14,02,7.60
2015,01,28,14,03,7.60
2015,01,28,14,04,7.60
2015,01,28,14,05,7.60
2015,01,28,14,06,7.60
2015,01,28,14,07,7.60
2015,01,28,14,08,7.60
2015,01,28,14,09,7.70
2015,01,28,14,10,7.70
2015,01,28,14,11,7.70
2015,01,28,14,12,7.70
2015,01,28,14,13,7.70
2015,01,28,14,14,7.70
2015,01,28,14,15,7.70
2015,01,28,14,16,7.70
2015,01,28,14,17,7.70
2015,01,28,14,18,7.70
2015,01,28,14,19,7.70
2015,01,28,14,20,7.70
2015,01,28,14,21,7.70
2015,01,28,14,22,7.70
2015,01,28,14,23,7.70
2015,01,28,14,24,7.70
2015,01,28,14,25,7.70
2015,01,28,14,26,7.80
2015,01,28,14,27,7.80
2015,01,28,14,28,7.80
2015,01,28,14,29,7.80
2015,01,28,14,30,7.80
2015,01,28,14,31,7.80
2015,01,28,14,32,7.90
2015,01,28,14,33,7.90
2015,01,28,14,34,7.90
2015,01,28,14,35,7.90
2015,01,28,14,36,7.90
2015,01,28,14,37,7.90
2015,01,28,14,38,7.90
2015,01,28,14,39,7.90
2015,01,28,14,40,8.00
2015,01,28,14,41,8.00
2015,01,28,14,42,8.00
2015,01,28,14,43,8.00
2015,01,28,14,44,8.00
2015,01,28,14,45,8.00
2015,01,28,14,46,8.00
2015,01,28,14,47,8.00
2015,01,28,14,48,8.00
2015,01,28,14,49,8.00
2015,01,28,14,50,8.00
2015,01,28,14,51,8.00
2015,01,28,14,52,8.00
2015,01,28,14,53,8.00
2015,01,28,14,54,7.90
2015,01,28,14,55,7.90
2015,01,28,14,56,7.90
2015,01,28,14,57,7.90
2015,01,28,14,58,7.90
2015,01,28,14,59,7.90
2015,01,28,15,00,7.90
2015,01,28,15,01,7.90
2015,01,28,15,02,7.90
2015,01,28,15,03,7.90
2015,01,28,15,04,7.90
2015,01,28,15,05,7.90
2015,01,28,15,06,7.90
2015,01,28,15,07,8.00
2015,01,28,15,08,8.00
2015,01,28,15,09,8.10
2015,01,28,15,10,8.10
2015,01,28,15,11,8.10
2015,01,28,15,12,8.10
2015,01,28,15,13,8.10
2015,01,28,15,14,8.10
2015,01,28,15,15,8.10
2015,01,28,15,16,8.10
2015,01,28,15,17,8.10
2015,01,28,15,18,8.10
2015,01,28,15,19,8.00
2015,01,28,15,20,8.00
2015,01,28,15,21,8.00
2015,01,28,15,22,7.90
2015,01,28,15,23,7.90
2015,01,28,15,24,7.90
2015,01,28,15,25,7.90
2015,01,28,15,26,7.90
2015,01,28,15,27,7.80
2015,01,28,15,28,7.80
2015,01,28,15,29,7.80
2015,01,28,15,30,7.80
2015,01,28,15,31,7.80
2015,01,28,15,32,7.70
2015,01,28,15,33,7.70
2015,01,28,15,34,7.70
2015,01,28,15,35,7.60
2015,01,28,15,36,7.60
2015,01,28,15,37,7.50
2015,01,28,15,38,7.40
2015,01,28,15,39,7.40
2015,01,28,15,40,7.30
2015,01,28,15,41,7.20
2015,01,28,15,42,7.20
2015,01,28,15,43,7.20
2015,01,28,15,44,7.20
2015,01,28,15,45,7.10
2015,01,28,15,46,7.10
2015,01,28,15,47,7.00
2015,01,28,15,48,7.00
2015,01,28,15,49,6.90
2015,01,28,15,50,6.90
2015,01,28,15,51,6.90
2015,01,28,15,52,6.90
2015,01,28,15,53,6.80
2015,01,28,15,54,6.80
2015,01,28,15,55,6.80
2015,01,28,15,56,6.80
2015,01,28,15,57,6.70
2015,01,28,15,58,6.70
2015,01,28,15,59,6.70
2015,01,28,16,00,6.70
2015,01,28,16,01,6.70
2015,01,28,16,02,6.70
2015,01,28,16,03,6.70
2015,01,28,16,04,6.70
2015,01,28,16,05,6.70
2015,01,28,16,06,6.70
2015,01,28,16,07,6.80
2015,01,28,16,08,6.80
2015,01,28,16,09,6.80
2015,01,28,16,10,6.80
2015,01,28,16,11,6.90
2015,01,28,16,12,6.90
2015,01,28,16,13,7.00
2015,01,28,16,14,7.10
2015,01,28,16,15,7.10
2015,01,28,16,16,7.10
2015,01,28,16,17,7.20
2015,01,28,16,18,7.20
2015,01,28,16,19,7.20
2015,01,28,16,20,7.20
2015,01,28,16,21,7.20
2015,01,28,16,22,7.20
2015,01,28,16,23,7.20
2015,01,28,16,24,7.20
2015,01,28,16,25,7.20
2015,01,28,16,26,7.10
2015,01,28,16,27,7.10
2015,01,28,16,28,7.10
2015,01,28,16,29,7.00
2015,01,28,16,30,7.00
2015,01,28,16,31,6.90
2015,01,28,16,32,6.90
2015,01,28,16,33,6.90
2015,01,28,16,34,6.80
2015,01,28,16,35,6.80
2015,01,28,16,36,6.80
2015,01,28,16,37,6.70
2015,01,28,16,38,6.60
2015,01,28,16,39,6.60
2015,01,28,16,40,6.50
2015,01,28,16,41,6.50
2015,01,28,16,42,6.40
2015,01,28,16,43,6.40
2015,01,28,16,44,6.30
2015,01,28,16,45,6.30
2015,01,28,16,46,6.20
2015,01,28,16,47,6.20
2015,01,28,16,48,6.10
2015,01,28,16,49,6.10
2015,01,28,16,50,6.00
2015,01,28,16,51,6.00
2015,01,28,16,52,5.90
2015,01,28,16,53,5.90
2015,01,28,16,54,5.90
2015,01,28,16,55,5.80
2015,01,28,16,56,5.80
2015,01,28,16,57,5.80
2015,01,28,16,58,5.70
2015,01,28,16,59,5.70
2015,01,28,17,00,5.60
2015,01,28,17,01,5.60
2015,01,28,17,02,5.50
2015,01,28,17,03,5.50
2015,01,28,17,04,5.40
2015,01,28,17,05,5.40
2015,01,28,17,06,5.40
2015,01,28,17,07,5.30
2015,01,28,17,08,5.30
2015,01,28,17,09,5.20
2015,01,28,17,10,5.20
2015,01,28,17,11,5.10
2015,01,28,17,12,5.10
2015,01,28,17,13,5.00
2015,01,28,17,14,5.00
2015,01,28,17,15,4.90
2015,01,28,17,16,4.90
2015,01,28,17,17,4.80
2015,01,28,17,18,4.80
2015,01,28,17,19,4.70
2015,01,28,17,20,4.70
2015,01,28,17,21,4.70
2015,01,28,17,22,4.60
2015,01,28,17,23,4.60
2015,01,28,17,24,4.60
2015,01,28,17,25,4.60
2015,01,28,17,26,4.50
2015,01,28,17,27,4.50
2015,01,28,17,28,4.40
2015,01,28,17,29,4.40
2015,01,28,17,30,4.30
2015,01,28,17,31,4.30
2015,01,28,17,32,4.20
2015,01,28,17,33,4.20
2015,01,28,17,34,4.20
2015,01,28,17,35,4.10
2015,01,28,17,36,4.10
2015,01,28,17,37,4.10
2015,01,28,17,38,4.10
2015,01,28,17,39,4.10
2015,01,28,17,40,4.00
2015,01,28,17,41,4.00
2015,01,28,17,42,3.90
2015,01,28,17,43,3.90
2015,01,28,17,44,3.80
2015,01,28,17,45,3.80
2015,01,28,17,46,3.80
2015,01,28,17,47,3.80
2015,01,28,17,48,3.70
2015,01,28,17,49,3.70
2015,01,28,17,50,3.70
2015,01,28,17,51,3.60
2015,01,28,17,52,3.60
2015,01,28,17,53,3.60
2015,01,28,17,54,3.50
2015,01,28,17,55,3.50
2015,01,28,17,56,3.50
2015,01,28,17,57,3.50
2015,01,28,17,58,3.40
2015,01,28,17,59,3.40
2015,01,28,18,00,3.40
2015,01,28,18,01,3.40
2015,01,28,18,02,3.30
2015,01,28,18,03,3.30
2015,01,28,18,04,3.30
2015,01,28,18,05,3.30
2015,01,28,18,06,3.30